Flight Information

DEPARTURE
GRAND CANYON, AZ
Elevation:
6608
Runways:
3/21 - 8999x150 - ASPH-G
ATIS:
124.3
Ground:
121.9
Tower:
CANYON TOWER 119.0
DESTINATION
,
Elevation:
TPA:
1000 (est.)


6465.9 NM77° True-14° Var62° HDG

Flight Plan:
(click to file on line)

1. Type
2. Aircraft Identification
3. Aircraft Type / Special Equipment
4. True Airspeed
kts
5. Departure Airport
(ICAO code)
6. Arriving Airport
(ICAO code)
7. Cruising Altitude
ft
8. Alternate Airport
(ICAO code)
9. Route of Flight
10. Remarks


00:00:00 Departure ATIS: Destination ATIS:

Clearance Limit:
Route:
Altitude: Expect in minutes
Frequency:
Transponder: (7500 Hijack / 7600 Lost Comms / 7700 Emergency)


KGCN 251854Z 18014G23KT 4SM -SN BR BKN012 BKN017 OVC033 M02/M04 A2961 RMK AO2 SLP030 P0000 T10221039
Time: 2021-01-25T18:54:00Z
1611603611
Winds: 180 @ 14 kts
Gusting:23 kts
Visibility: 4.0 sm
Clouds (AGL): BKN 1200
BKN 1700
OVC 3300
Temperature: -2.2 C
Dew Point: -3.9 C
Pressure: 29.610237 in Hgbr


Notes:

Data extracted from FAA Digital Chart Supplement. Effective: 0901Z Thursday, Dec 31, 2020 to 0901Z Thursday, Jan 28, 2021
Current ATIS data is provided courtisy of PilotEdge.